Location: Shenandoah County Park
(38.9356°N, 78.4524°W)
Time: 00:34:40
(UTC-05:00)

Envisat - Pass Details

Date: 19 September 2025
Orbit: 761 x 763 km, 98.4° (Epoch: 15 January)

Event Time Altitude Azimuth Distance (km) Brightness Sun altitude
Rises 04:43:17 0° 3° (N) 3,230 6.6 -26.3°
Reaches altitude 10° 04:45:45 10° 355° (N) 2,301 5.7 -25.9°
Enters shadow 04:48:43 28° 326° (NW) 1,395 4.2 -25.4°
